Theta_e
345 344 343 344 344 344 343 346 352 353 353 356 354 349 343 338 331 326 325 324 322 320
347 347 345 345 345 347 348 349 356 354 354 355 353 350 343 337 333 328 325 323 322 321
347 348 348 348 346 347 349 350 354 353 355 354 352 349 343 337 334 330 325 323 322 320
346 346 347 347 347 347 348 349 348 352 353 353 351 349 344 339 332 329 327 325 322 321
345 346 346 346 346 346 346 347 348 349 350 352 351 349 345 340 334 329 327 326 322 322
344 343 344 345 346 344 345 346 348 349 350 351 351 348 346 343 337 330 329 327 324 322
344 344 344 344 344 343 344 345 346 348 350 351 351 349 347 343 339 333 329 328 326 323
345 346 346 344 344 343 343 344 344 346 348 351 351 349 347 345 341 336 330 328 326 323
344 345 344 344 344 343 343 344 344 344 345 347 349 338 335 343 344 337 331 327 325 324
343 342 343 343 344 343 343 344 345 345 346 346 348 333 331 334 344 336 330 326 324 321
344 343 344 344 344 345 345 344 345 346 348 348 348 331 327 330 344 336 332 327 324 322
344 343 344 344 345 346 346 346 346 347 348 348 349 325 324 328 341 334 331 327 324 323
345 344 344 345 346 347 347 347 348 347 349 342 349 322 321 326 341 336 333 328 323 321
346 345 346 346 347 347 347 347 346 346 348 350 346 343 318 317 343 339 334 330 325 323
Wind_Speed
8 6 5 5 4 3 3 3 2 3 4 5 5 4 4 2 3 4 3 5 3 2
8 8 7 7 5 3 3 3 2 4 5 5 5 5 5 3 3 3 3 3 4 2
11 9 7 5 6 6 4 4 3 4 5 6 6 6 5 4 3 5 3 3 4 2
11 10 9 7 7 6 5 5 5 5 5 6 7 7 6 5 5 5 5 3 4 4
11 10 10 9 8 8 8 6 6 5 5 7 7 7 8 8 7 7 7 7 6 6
12 11 13 12 9 8 8 8 7 6 6 8 9 9 8 8 8 8 8 8 8 7
14 15 13 11 9 9 9 9 9 9 9 8 9 10 9 9 8 8 8 8 8 7
15 14 11 10 10 9 10 10 9 9 8 8 9 8 10 10 10 9 8 8 8 8
14 12 12 11 10 10 10 10 9 10 10 10 9 12 16 13 11 11 10 9 8 8
14 14 13 12 11 11 11 9 11 11 11 11 11 15 17 19 11 10 11 10 8 8
15 15 13 11 12 11 9 11 10 10 11 11 10 15 18 18 13 10 10 11 11 12
15 15 13 13 13 11 9 10 10 7 11 12 11 16 17 15 11 9 12 10 11 12
16 15 15 14 13 11 10 11 8 9 11 13 12 15 18 17 9 11 9 9 9 17
15 17 16 14 11 10 10 9 9 10 10 12 12 10 17 19 11 9 10 10 9 9
Wind_Direction
191 197 198 190 186 208 206 214 207 202 190 184 169 160 144 132 119 121 120 109 108 109
194 197 203 196 185 188 200 218 227 171 181 180 183 169 156 161 147 139 131 142 145 174
202 200 201 182 192 192 202 196 176 181 184 181 186 175 169 174 171 168 156 172 159 157
200 201 203 201 195 190 183 194 190 196 192 201 192 179 181 189 183 185 173 163 189 195
198 197 205 210 198 183 193 192 202 201 197 210 201 182 191 194 195 187 191 196 192 204
200 199 211 215 205 183 194 197 200 205 204 204 200 193 200 199 197 198 198 197 196 199
199 206 211 208 202 187 192 202 201 210 208 204 199 201 200 202 202 198 207 201 199 186
201 206 205 199 201 191 196 205 207 207 207 206 202 202 200 204 207 199 208 206 197 194
198 198 197 199 204 197 201 201 200 209 208 211 214 201 197 199 206 202 202 205 199 192
192 197 201 201 200 208 205 193 210 210 212 217 217 199 200 201 205 200 202 199 189 194
192 198 200 198 204 212 199 205 211 210 212 220 220 196 201 204 208 206 199 198 190 197
190 198 196 201 207 210 202 207 211 205 206 217 225 195 199 192 207 202 208 196 191 197
189 194 199 205 207 208 207 214 211 212 213 218 221 192 198 192 198 208 206 197 198 201
190 194 200 202 204 198 200 209 209 221 220 221 211 201 200 193 203 209 206 203 202 205